Вернуться в каталог

STARLINK-30888

АктивенСвязьVLEO
NORAD 58370·PAYLOAD·🇺🇸 United States

Запущен Nov 18, 2023 с Cape Canaveral Space Force Station

Loading…

Ближайшие Пролёты (ближайшие 24 часа)

TLE

СвежийSource: CelesTrak SupGP

Эпоха: Sep 14, 2026, 22:28 UTC

1 58370C 23177V   26257.93659722 -.00085620  00000+0 -31002-2 0  2575
2 58370  43.0037   1.5570 0001760 270.3474  83.2775 15.27630334    18

Отслеживайте STARLINK-30888 в реальном времени с AllMySat

Download on the App Store